Location: Unspecified
(44.0704°N, 88.6889°W)
Time: 19:17:26
(UTC+02:00)

Transit 2A - Pass Details

Date: 25 June 2019
Orbit: 594 x 964 km, 66.7° (Epoch: 19 July)

Event Time Altitude Azimuth Distance (km) Brightness Sun altitude
Rises 09:08:07 0° 252° (WSW) 3,642 - -20.6°
Exits shadow 09:10:21 - 261° (W) 2,944 8.8 -20.5°
Reaches altitude 10° 09:11:11 10° 265° (W) 2,699 8.6 -20.4°
Maximum altitude 09:16:19 25° 319° (NW) 1,814 8.2 -20.2°
Drops below altitude 10° 09:21:20 10° 13° (NNE) 2,624 10.0 -19.8°
Sets 09:24:18 0° 27° (NNE) 3,520 11.0 -19.7°
